Meteor 1-5 Rocket - Orbit

View from above orbital plane
View from above orbital plane
View from above satellite
View from above satellite

Ground track
Ground track

The orbit data is extracted from the following two-line orbital elements,

1 04420U 70047B   13140.83228412  .00000098  00000-0  44661-4 0  9281
2 04420 081.2292 349.0565 0088506 146.2614 290.0318 14.11796675208481
Epoch (UTC): 20 May 2013 19:58:29
Eccentricity: 0.0088506
inclination: 81.2292°
perigee height: 789 km
apogee height: 917 km
right ascension of ascending node: 349.0565°
argument of perigee: 146.2614°
revolutions per day: 14.11796675
mean anomaly at epoch: 290.0318°
orbit number at epoch: 20848

The dashed part of the orbit path shows where the satellite is in the earth's shadow,  

Developed and maintained by Chris Peat, Heavens-Above GmbH. Please read the updated FAQ before sending e-mail. Imprint. DLR